GW0147 Weather Reports


Display with metric or nautical units.
time (UTC)temp
F
wind
direction
speed
MPH
gust
MPH
rain 1hr
in
rain 24hr
in
rain mn
in
humidity
%
barometer
mb
20260507151541 50 265 3.0 6.0 0.00 0.00 0.00 70 1013.8
20260507150039 50 313 3.0 5.0 0.00 0.00 0.00 73 1013.7
20260507144538 49 311 3.0 5.0 0.00 0.01 0.00 76 1013.7
20260507143056 49 302 2.0 7.0 0.00 0.01 0.00 76 1013.7
20260507141553 48 311 3.0 7.0 0.00 0.01 0.00 75 1013.7
20260507140035 49 11 1.0 5.0 0.00 0.01 0.00 75 1013.9
20260507134533 48 10 2.0 4.0 0.00 0.01 0.00 79 1014.0
20260507133034 47 11 2.0 5.0 0.00 0.01 0.00 80 1014.1
20260507131537 46 123 1.0 3.0 0.00 0.01 0.00 81 1014.0
20260507130038 46 127 1.0 4.0 0.00 0.01 0.00 81 1013.9
20260507124526 45 132 0.0 4.0 0.00 0.02 0.00 83 1014.1
20260507123024 44 183 1.0 2.0 0.00 0.02 0.00 85 1014.2
20260507121524 44 183 0.0 3.0 0.00 0.02 0.00 87 1014.2
20260507120023 42 183 0.0 3.0 0.00 0.02 0.00 88 1014.3
20260507114523 41 175 0.0 1.0 0.00 0.04 0.00 91 1014.4
20260507113023 40 170 0.0 0.0 0.00 0.04 0.00 91 1014.4
20260507111522 39 170 0.0 2.0 0.00 0.04 0.00 92 1014.3
20260507110022 38 170 0.0 4.0 0.00 0.04 0.00 92 1014.0
20260507104522 38 165 1.0 3.0 0.00 0.07 0.00 92 1013.7
20260507103020 38 165 0.0 2.0 0.00 0.07 0.00 92 1013.5
20260507101518 38 165 0.0 3.0 0.00 0.07 0.00 91 1013.3
20260507100017 38 165 0.0 3.0 0.00 0.07 0.00 92 1013.3
20260507094517 38 165 0.0 0.0 0.00 0.11 0.00 92 1013.5
20260507093017 38 165 0.0 2.0 0.00 0.11 0.00 91 1013.4
20260507091519 39 165 0.0 2.0 0.00 0.11 0.00 91 1013.4
20260507090014 39 165 2.0 4.0 0.00 0.11 0.00 92 1013.2
20260507084515 39 167 1.0 4.0 0.00 0.16 0.00 91 1013.3
20260507083013 39 164 1.0 4.0 0.00 0.16 0.00 92 1013.3
20260507081512 39 163 1.0 3.0 0.00 0.16 0.00 91 1013.5
20260507080010 39 164 0.0 3.0 0.00 0.16 0.00 91 1013.6
20260507074507 40 163 0.0 3.0 0.00 0.19 0.00 91 1013.7
20260507073007 40 162 1.0 3.0 0.00 0.19 0.00 91 1013.4
20260507071504 40 161 0.0 4.0 0.00 0.19 0.00 91 1013.4
20260507070004 41 165 1.0 4.0 0.00 0.19 0.00 91 1013.5
20260507064503 41 141 1.0 5.0 0.00 0.22 0.00 90 1013.4
20260507063122 41 200 1.0 3.0 0.00 0.22 0.00 90 1013.9
20260507061557 42 200 0.0 3.0 0.00 0.22 0.00 90 1014.1
20260507060112 42 192 0.0 3.0 0.00 0.22 0.00 90 1014.0
20260507054602 43 192 1.0 3.0 0.00 0.25 0.00 90 1014.0
20260507053058 43 192 1.0 3.0 0.00 0.25 0.00 90 1014.1
20260507051603 43 240 0.0 3.0 0.00 0.25 0.00 90 1014.3
20260507050050 43 246 0.0 2.0 0.00 0.25 0.00 90 1014.4
20260507044550 43 246 0.0 0.0 0.00 0.33 0.00 89 1014.4
20260507043046 43 246 0.0 1.0 0.00 0.33 0.00 89 1014.5
20260507041544 44 246 0.0 2.0 0.00 0.33 0.00 89 1014.4
20260507040042 44 246 0.0 1.0 0.00 0.33 0.00 89 1014.4
20260507034542 44 246 0.0 1.0 0.00 0.37 0.33 89 1014.3
20260507033041 44 246 0.0 1.0 0.00 0.37 0.33 89 1014.2
20260507031540 44 246 0.0 3.0 0.00 0.37 0.33 89 1014.3
20260507030040 44 260 0.0 2.0 0.00 0.37 0.33 88 1014.4
20260507024541 44 260 0.0 2.0 0.00 0.42 0.33 88 1014.3
20260507023043 44 260 0.0 3.0 0.00 0.42 0.33 88 1014.1
20260507021542 44 261 0.0 3.0 0.00 0.42 0.33 88 1014.3
20260507020042 44 341 0.0 2.0 0.00 0.42 0.33 88 1014.2
20260507014544 44 341 0.0 1.0 0.00 0.48 0.33 88 1014.4
20260507013037 44 341 0.0 2.0 0.00 0.48 0.33 88 1014.4
20260507011540 44 342 0.0 2.0 0.00 0.48 0.33 87 1014.3
20260507010054 44 342 0.0 1.0 0.00 0.48 0.33 87 1014.1
20260507004536 44 342 0.0 2.0 0.00 0.55 0.33 87 1013.9
20260507003032 44 342 0.0 0.0 0.00 0.55 0.33 86 1013.8
20260507001531 44 342 0.0 2.0 0.00 0.55 0.33 86 1013.7
20260507000028 44 344 0.0 2.0 0.00 0.55 0.33 86 1013.3
20260506234530 44 344 0.0 1.0 0.00 0.59 0.33 86 1013.1
20260506233027 44 344 0.0 1.0 0.00 0.59 0.33 87 1013.1
20260506231526 45 344 0.0 2.0 0.00 0.59 0.33 87 1013.2
20260506230028 44 344 0.0 2.0 0.00 0.59 0.33 88 1013.2
20260506224525 44 344 1.0 3.0 0.00 0.67 0.33 88 1013.1
20260506223024 44 348 2.0 5.0 0.00 0.67 0.33 88 1013.2
20260506221522 44 318 2.0 5.0 0.00 0.67 0.33 88 1012.8
20260506220028 43 34 2.0 6.0 0.00 0.67 0.33 89 1012.6
20260506214517 44 330 4.0 7.0 0.00 0.80 0.33 89 1012.4
20260506213016 43 321 4.0 11.0 0.00 0.80 0.33 88 1012.3
20260506211513 44 327 5.0 12.0 0.00 0.80 0.33 87 1012.1
20260506210009 46 221 4.0 11.0 0.00 0.80 0.33 87 1011.7
20260506204508 47 251 6.0 14.0 0.00 0.83 0.33 85 1011.5
20260506203006 49 232 4.0 12.0 0.00 0.83 0.33 85 1011.3
20260506201522 49 255 7.0 13.0 0.00 0.83 0.33 83 1011.2
20260506200005 51 269 4.0 10.0 0.00 0.83 0.33 81 1011.1
20260506194507 51 261 4.0 12.0 0.00 0.83 0.33 82 1011.0
20260506193003 52 244 3.0 12.0 0.00 0.83 0.33 82 1011.0
20260506191503 53 259 3.0 7.0 0.00 0.83 0.33 79 1011.0
20260506190002 52 265 4.0 9.0 0.00 0.83 0.33 76 1010.9
20260506184501 53 283 3.0 6.0 0.00 0.83 0.33 76 1010.8
20260506183114 53 274 3.0 6.0 0.00 0.83 0.33 76 1010.7
20260506181559 53 309 2.0 5.0 0.00 0.83 0.33 78 1010.7
20260506180057 51 310 0.0 4.0 0.00 0.83 0.33 81 1010.8
20260506174553 50 340 1.0 3.0 0.00 0.83 0.33 83 1010.9
20260506173053 50 360 1.0 3.0 0.00 0.83 0.33 83 1010.8
20260506171600 49 97 0.0 1.0 0.00 0.83 0.33 86 1010.7
20260506170053 48 33 1.0 3.0 0.00 0.83 0.33 87 1010.8
20260506164549 48 318 0.0 0.0 0.00 0.83 0.33 90 1010.9
20260506163046 48 316 0.0 3.0 0.00 0.83 0.33 91 1010.8
20260506161545 47 329 2.0 5.0 0.00 0.83 0.33 91 1010.6
20260506160057 47 316 3.0 4.0 0.00 0.83 0.33 91 1010.6
20260506154542 47 35 1.0 4.0 0.00 0.83 0.33 92 1010.6
20260506153041 48 37 0.0 4.0 0.00 0.83 0.33 92 1010.5